Regional Weather Roundup
Issued by NWS Goodland, KS

Home | Current Version | Previous Version | Text Only | Print | Product List | Glossary Off
Versions: 1 2 3 4 5 6 7 8 9 10 11 12 13 14 15 16 17 18 19 20 21 22 23 24 25 26 27 28 29 30 31 32 33 34 35 36 37 38 39 40 41 42 43 44 45 46 47 48 49 50

000
ASUS43 KGLD 190459
RWRGLD

GOODLAND FORECAST AREA HOURLY WEATHER ROUNDUP
NATIONAL WEATHER SERVICE GOODLAND KS
1100 PM MDT MON SEP 18 2017

...OFFICIAL OBSERVATIONS...

CITY           SKY/WX    TMP DP  RH WIND       PRES   REMARKS
GOODLAND KS    CLEAR     60  51  72 SE9       29.88S
HILL CITY KS   CLEAR     66  59  78 E6        29.86S
IMPERIAL NEB   CLEAR     59  51  75 SE8       29.85
MCCOOK NEB     CLEAR     66  59  78 SE10      29.84F
AKRON CO       CLEAR     63  42  46 S17       29.88F
BURLINGTON CO  CLEAR     60  47  61 SE13      29.90F
LIMON CO         N/A    N/A N/A N/A MISG      29.93F
$$

...UNOFFICIAL OBSERVATIONS...

CITY           SKY/WX    TMP DP  RH WIND       PRES   REMARKS
LENORA KS        N/A     64  32  30 MISG        N/A
NORTON KS      CLEAR     63  54  72 E6        29.85F
SHARON SPRINGS   N/A     59  50  72 SE8         N/A
TRENTON NEB      N/A     63  32  31 SE6         N/A
KIT CARSON CO    N/A     65  47  52 MISG        N/A
YUMA CO        FAIR      59  45  58 SE6       29.87S
$$




USA.gov is the U.S. government's official web portal to all federal, state and local government web resources and services.